This is the latest recevied weather packets stored in our database for station/object WA1OUI. If no packets are shown the sender has not sent any weather packets the latest 1 day(s).
| Time | Temp. | Humidity | Pressure | Rain* | Wind** | Luminosity | Snow |
|---|---|---|---|---|---|---|---|
| 1778031224 | 16.11° C | 71% | 1008 hPa | 0 mm | 0.89 m/s, 334° | 0 W/m² | - |
| 1778030920 | 16.11° C | 71% | 1007.9 hPa | 0 mm | 1.34 m/s, 330° | 0 W/m² | - |
| 1778030617 | 16.67° C | 71% | 1007.8 hPa | 0 mm | 0.89 m/s, 349° | 0 W/m² | - |
| 1778030314 | 16.67° C | 70% | 1007.7 hPa | 0 mm | 0.89 m/s, 1° | 0 W/m² | - |
| 1778030011 | 16.67° C | 70% | 1007.6 hPa | 0 mm | 0.89 m/s, 351° | 0 W/m² | - |
| 1778029708 | 16.67° C | 69% | 1007.5 hPa | 0 mm | 0.89 m/s, 343° | 0 W/m² | - |
| 1778029406 | 17.22° C | 69% | 1007.6 hPa | 0 mm | 0.89 m/s, 2° | 0 W/m² | - |
| 1778029103 | 17.22° C | 67% | 1007.5 hPa | 0 mm | 0.89 m/s, 342° | 0 W/m² | - |
| 1778028800 | 17.22° C | 67% | 1007.5 hPa | 0 mm | 0.89 m/s, 343° | 0 W/m² | - |
| 1778028496 | 17.78° C | 66% | 1007.4 hPa | 0 mm | 0.89 m/s, 336° | 0 W/m² | - |
| 1778028193 | 17.78° C | 65% | 1007.3 hPa | 0 mm | 0.89 m/s, 342° | 0 W/m² | - |
| 1778027889 | 17.78° C | 64% | 1007.2 hPa | 0 mm | 1.34 m/s, 347° | 0 W/m² | - |
| 1778027586 | 18.33° C | 64% | 1007.3 hPa | 0 mm | 0.89 m/s, 343° | 0 W/m² | - |
| 1778027282 | 18.33° C | 63% | 1007.2 hPa | 0 mm | 0.89 m/s, 329° | 0 W/m² | - |
| 1778026978 | 18.33° C | 63% | 1007 hPa | 0 mm | 0.89 m/s, 347° | 0 W/m² | - |
| 1778026674 | 18.89° C | 62% | 1006.8 hPa | 0 mm | 0 m/s | 0 W/m² | - |
| 1778026372 | 18.89° C | 62% | 1006.8 hPa | 0 mm | 1.34 m/s, 345° | 0 W/m² | - |
| 1778026069 | 18.89° C | 61% | 1006.7 hPa | 0 mm | 1.34 m/s, 342° | 0 W/m² | - |
| 1778025766 | 19.44° C | 60% | 1006.7 hPa | 0 mm | 0.89 m/s, 356° | 0 W/m² | - |
| 1778025463 | 19.44° C | 60% | 1006.5 hPa | 0 mm | 1.34 m/s, 352° | 1 W/m² | - |
| 1778025161 | 19.44° C | 59% | 1006.4 hPa | 0 mm | 0.89 m/s, 8° | 2 W/m² | - |
| 1778024857 | 20° C | 58% | 1006.5 hPa | 0 mm | 0.89 m/s, 346° | 2 W/m² | - |
| 1778024555 | 20° C | 57% | 1006.5 hPa | 0 mm | 0.89 m/s, 349° | 4 W/m² | - |
| 1778024251 | 20° C | 56% | 1006.4 hPa | 0 mm | 0 m/s | 5 W/m² | - |
| 1778023950 | 20.56° C | 56% | 1006.3 hPa | 0 mm | 0.89 m/s, 344° | 7 W/m² | - |
* Rain latest hour (hover to see other rain measurements)
** Current wind speed in m/s (hover to see current wind gust speed)